• în România
  • Lista ţărilor
  • Pe 7 zile
  • Temperatura apei
  • Hartă satelitară
  • Meteo pe hartă
  • Widget-uri
  • user-avatar
    Intrare

    Meteo pe oră la Zimnicea

    Astăzi, 23 Septembrie, Sâmbătă

    Timp Temperatura Precipitaţii Vânt Presiune Umiditate
    00:00 +13°C° 0 mm 5 m/s 759 mmHg 73%
    01:00 +13°C° 0 mm 4 m/s 759 mmHg 74%
    02:00 +12°C° 0 mm 4 m/s 758 mmHg 78%
    03:00 +12°C° 0 mm 4 m/s 758 mmHg 78%
    04:00 +12°C° 0 mm 4 m/s 758 mmHg 78%
    05:00 +12°C° 0 mm 4 m/s 759 mmHg 79%
    06:00 +13°C° 0 mm 5 m/s 759 mmHg 74%
    07:00 +14°C° 0 mm 6 m/s 759 mmHg 70%
    08:00 +15°C° 0 mm 6 m/s 759 mmHg 67%
    09:00 +17°C° 0 mm 6 m/s 759 mmHg 61%
    10:00 +19°C° 0 mm 6 m/s 759 mmHg 55%
    11:00 +21°C° 0 mm 6 m/s 759 mmHg 49%
    12:00 +22°C° 0 mm 6 m/s 759 mmHg 44%
    13:00 +23°C° 0 mm 6 m/s 759 mmHg 39%
    14:00 +24°C° 0 mm 6 m/s 759 mmHg 35%
    15:00 +23°C° 0 mm 6 m/s 759 mmHg 35%
    16:00 +23°C° 0 mm 5 m/s 759 mmHg 35%
    17:00 +22°C° 0 mm 5 m/s 759 mmHg 35%
    18:00 +21°C° 0 mm 4 m/s 759 mmHg 38%
    19:00 +20°C° 0 mm 4 m/s 760 mmHg 41%
    20:00 +18°C° 0 mm 3 m/s 760 mmHg 45%
    21:00 +18°C° 0 mm 3 m/s 760 mmHg 48%
    22:00 +17°C° 0 mm 3 m/s 760 mmHg 51%
    23:00 +16°C° 0 mm 3 m/s 760 mmHg 54%

    Mâine, 24 Septembrie, Duminică

    Timp Temperatura Precipitaţii Vânt Presiune Umiditate
    00:00 +14°C° 0 mm 3 m/s 760 mmHg 55%
    01:00 +14°C° 0 mm 3 m/s 760 mmHg 57%
    02:00 +14°C° 0 mm 3 m/s 760 mmHg 58%
    03:00 +13°C° 0 mm 3 m/s 760 mmHg 60%
    04:00 +13°C° 0 mm 3 m/s 760 mmHg 61%
    05:00 +14°C° 0 mm 2 m/s 760 mmHg 63%
    06:00 +14°C° 0 mm 3 m/s 760 mmHg 60%
    07:00 +16°C° 0 mm 3 m/s 761 mmHg 57%
    08:00 +17°C° 0 mm 3 m/s 761 mmHg 53%
    09:00 +19°C° 0 mm 3 m/s 761 mmHg 48%
    10:00 +21°C° 0 mm 4 m/s 761 mmHg 43%
    11:00 +23°C° 0 mm 4 m/s 761 mmHg 37%
    12:00 +25°C° 0 mm 4 m/s 760 mmHg 35%
    13:00 +25°C° 0 mm 4 m/s 760 mmHg 34%
    14:00 +26°C° 0 mm 4 m/s 760 mmHg 32%
    15:00 +26°C° 0 mm 3 m/s 760 mmHg 32%
    16:00 +26°C° 0 mm 3 m/s 760 mmHg 33%
    17:00 +26°C° 0 mm 2 m/s 760 mmHg 33%
    18:00 +24°C° 0 mm 2 m/s 760 mmHg 37%
    19:00 +22°C° 0 mm 1 m/s 760 mmHg 41%
    20:00 +21°C° 0 mm 1 m/s 760 mmHg 45%
    21:00 +20°C° 0 mm 1 m/s 761 mmHg 46%
    22:00 +20°C° 0 mm 1 m/s 761 mmHg 47%
    23:00 +19°C° 0 mm 1 m/s 761 mmHg 48%

    Poimâine, 25 Septembrie, Luni

    Timp Temperatura Precipitaţii Vânt Presiune Umiditate
    00:00 +19°C° 0 mm 1 m/s 761 mmHg 49%
    01:00 +19°C° 0 mm 1 m/s 761 mmHg 50%
    02:00 +19°C° 0 mm 1 m/s 761 mmHg 50%
    03:00 +19°C° 0,1 mm 1 m/s 761 mmHg 53%
    04:00 +18°C° 0,1 mm 1 m/s 761 mmHg 55%
    05:00 +18°C° 0,1 mm 1 m/s 761 mmHg 57%
    06:00 +18°C° 0,2 mm 1 m/s 761 mmHg 58%
    07:00 +17°C° 0,2 mm 2 m/s 761 mmHg 58%
    08:00 +18°C° 0,2 mm 2 m/s 762 mmHg 59%
    09:00 +19°C° 0,1 mm 2 m/s 762 mmHg 54%
    10:00 +21°C° 0,1 mm 3 m/s 762 mmHg 49%
    11:00 +22°C° 0,1 mm 4 m/s 762 mmHg 44%
    12:00 +23°C° 0 mm 4 m/s 761 mmHg 40%
    13:00 +26°C° 0 mm 4 m/s 761 mmHg 36%
    14:00 +27°C° 0 mm 4 m/s 761 mmHg 33%
    15:00 +27°C° 0 mm 4 m/s 761 mmHg 34%
    16:00 +27°C° 0 mm 4 m/s 761 mmHg 35%
    17:00 +26°C° 0 mm 4 m/s 761 mmHg 37%
    18:00 +25°C° 0 mm 4 m/s 761 mmHg 41%
    19:00 +22°C° 0 mm 4 m/s 761 mmHg 46%
    20:00 +21°C° 0 mm 4 m/s 762 mmHg 50%
    21:00 +20°C° 0 mm 3 m/s 762 mmHg 53%
    22:00 +19°C° 0 mm 3 m/s 762 mmHg 56%
    23:00 +18°C° 0 mm 2 m/s 762 mmHg 59%

    26 Septembrie, Marţi

    Timp Temperatura Precipitaţii Vânt Presiune Umiditate
    00:00 +18°C° 0 mm 2 m/s 761 mmHg 61%
    01:00 +18°C° 0 mm 2 m/s 761 mmHg 62%
    02:00 +18°C° 0 mm 1 m/s 761 mmHg 63%
    03:00 +17°C° 0 mm 2 m/s 761 mmHg 64%
    04:00 +17°C° 0 mm 2 m/s 761 mmHg 65%
    05:00 +16°C° 0 mm 2 m/s 761 mmHg 66%
    06:00 +17°C° 0 mm 2 m/s 761 mmHg 64%
    07:00 +18°C° 0 mm 3 m/s 761 mmHg 61%
    08:00 +18°C° 0 mm 3 m/s 761 mmHg 59%
    09:00 +20°C° 0 mm 3 m/s 761 mmHg 55%
    10:00 +21°C° 0 mm 4 m/s 761 mmHg 51%
    11:00 +23°C° 0 mm 4 m/s 761 mmHg 47%
    12:00 +23°C° 0 mm 4 m/s 761 mmHg 46%
    13:00 +25°C° 0 mm 5 m/s 761 mmHg 45%
    14:00 +26°C° 0 mm 5 m/s 760 mmHg 43%
    15:00 +25°C° 0,1 mm 5 m/s 760 mmHg 45%
    16:00 +25°C° 0,1 mm 5 m/s 760 mmHg 47%
    17:00 +23°C° 0,1 mm 5 m/s 761 mmHg 48%
    18:00 +22°C° 0,1 mm 4 m/s 761 mmHg 52%
    19:00 +21°C° 0,1 mm 4 m/s 761 mmHg 56%
    20:00 +20°C° 0,1 mm 3 m/s 762 mmHg 59%
    21:00 +19°C° 0 mm 3 m/s 762 mmHg 62%
    22:00 +18°C° 0 mm 3 m/s 762 mmHg 64%
    23:00 +18°C° 0 mm 3 m/s 762 mmHg 66%

    27 Septembrie, Miercuri

    Timp Temperatura Precipitaţii Vânt Presiune Umiditate
    00:00 +17°C° 0 mm 3 m/s 762 mmHg 66%
    01:00 +16°C° 0 mm 2 m/s 762 mmHg 66%
    02:00 +15°C° 0 mm 2 m/s 762 mmHg 66%
    03:00 +15°C° 0 mm 2 m/s 763 mmHg 63%
    04:00 +15°C° 0 mm 2 m/s 763 mmHg 61%
    05:00 +14°C° 0 mm 2 m/s 763 mmHg 58%
    06:00 +15°C° 0 mm 2 m/s 763 mmHg 54%
    07:00 +16°C° 0 mm 2 m/s 763 mmHg 50%
    08:00 +17°C° 0 mm 3 m/s 763 mmHg 46%
    09:00 +18°C° 0 mm 3 m/s 763 mmHg 45%
    10:00 +19°C° 0 mm 3 m/s 764 mmHg 44%
    11:00 +20°C° 0 mm 4 m/s 764 mmHg 43%
    12:00 +20°C° 0 mm 4 m/s 763 mmHg 43%
    13:00 +20°C° 0 mm 4 m/s 763 mmHg 44%
    14:00 +21°C° 0 mm 4 m/s 763 mmHg 44%
    15:00 +21°C° 0 mm 4 m/s 763 mmHg 45%
    16:00 +20°C° 0 mm 4 m/s 763 mmHg 46%
    17:00 +20°C° 0 mm 3 m/s 763 mmHg 47%
    18:00 +20°C° 0 mm 3 m/s 764 mmHg 48%
    19:00 +19°C° 0 mm 3 m/s 764 mmHg 50%
    20:00 +19°C° 0 mm 3 m/s 765 mmHg 51%
    21:00 +18°C° 0 mm 3 m/s 765 mmHg 54%
    22:00 +17°C° 0 mm 3 m/s 765 mmHg 56%
    23:00 +17°C° 0 mm 3 m/s 765 mmHg 59%

    28 Septembrie, Joi

    Timp Temperatura Precipitaţii Vânt Presiune Umiditate
    00:00 +16°C° 0 mm 3 m/s 765 mmHg 62%
    01:00 +14°C° 0 mm 3 m/s 765 mmHg 64%
    02:00 +14°C° 0 mm 2 m/s 765 mmHg 67%
    03:00 +14°C° 0 mm 2 m/s 765 mmHg 67%
    04:00 +14°C° 0 mm 2 m/s 765 mmHg 68%
    05:00 +13°C° 0 mm 2 m/s 765 mmHg 68%
    06:00 +14°C° 0 mm 2 m/s 765 mmHg 65%
    07:00 +14°C° 0 mm 3 m/s 765 mmHg 62%
    08:00 +16°C° 0 mm 3 m/s 766 mmHg 59%
    09:00 +17°C° 0 mm 4 m/s 766 mmHg 54%
    10:00 +18°C° 0 mm 4 m/s 766 mmHg 50%
    11:00 +20°C° 0 mm 4 m/s 766 mmHg 45%
    12:00 +20°C° 0 mm 4 m/s 765 mmHg 42%
    13:00 +21°C° 0 mm 4 m/s 765 mmHg 39%
    14:00 +22°C° 0 mm 5 m/s 765 mmHg 37%
    15:00 +21°C° 0 mm 5 m/s 765 mmHg 36%
    16:00 +21°C° 0 mm 5 m/s 765 mmHg 36%
    17:00 +21°C° 0 mm 5 m/s 765 mmHg 35%
    18:00 +19°C° 0 mm 4 m/s 765 mmHg 38%
    19:00 +18°C° 0 mm 4 m/s 766 mmHg 41%
    20:00 +16°C° 0 mm 3 m/s 766 mmHg 43%
    21:00 +14°C° 0 mm 3 m/s 766 mmHg 45%
    22:00 +14°C° 0 mm 3 m/s 766 mmHg 46%
    23:00 +13°C° 0 mm 3 m/s 767 mmHg 47%
    Arată mai mult